,,,PA_Meas_PMT16A,,PR_Meas_QMR101_102,,RH_Meas_QMH101,,SR_Meas_QMS101,,TA_Meas_QMH101,,GenWind,,GenWind,
date,time,status,PA,status,PR,status,RH,status,SR,status,TA,status,DirAvg,status,SpdAvg,
2008-12-03, 00:00:04,VALID,1009.26,VALID,0,VALID,94.2391,VALID,0,VALID,24.6489,VALID,101,VALID,0.355469,
2008-12-03, 00:01:04,VALID,1009.22,VALID,0,VALID,94.2543,VALID,0,VALID,24.6879,VALID,103,VALID,0.45625,
2008-12-03, 00:02:04,VALID,1009.2,VALID,0,VALID,94.2619,VALID,0,VALID,24.6684,VALID,103,VALID,0.611719,
2008-12-03, 00:03:04,VALID,1009.16,VALID,0,VALID,94.2619,VALID,0,VALID,24.6879,VALID,103,VALID,0.383594,
2008-12-03, 00:04:04,VALID,1009.14,VALID,0,VALID,94.2543,VALID,0,VALID,24.7074,VALID,103,VALID,0.311719,
2008-12-03, 00:05:04,VALID,1009.11,VALID,0,VALID,94.2543,VALID,0,VALID,24.686,VALID,103,VALID,0.551172,
2008-12-03, 00:06:04,VALID,1009.12,VALID,0,VALID,94.2238,VALID,0,VALID,24.7074,VALID,100,VALID,0.574609,
2008-12-03, 00:07:04,VALID,1009.09,VALID,0,VALID,94.1933,VALID,0,VALID,24.7074,VALID,94,VALID,0.447656,
2008-12-03, 00:08:04,VALID,1009.09,VALID,0,VALID,94.1704,VALID,0,VALID,24.6879,VALID,94,VALID,0.601563,
2008-12-03, 00:09:04,VALID,1009.1,VALID,0,VALID,94.1323,VALID,0,VALID,24.6666,VALID,90,VALID,0.305078,
2008-12-03, 00:10:04,VALID,1009.08,VALID,0,VALID,94.0789,VALID,0,VALID,24.6684,VALID,90,VALID,0.281641,
2008-12-03, 00:11:04,VALID,1009.1,VALID,0,VALID,94.056,VALID,0,VALID,24.6684,VALID,87,VALID,0.276953,
2008-12-03, 00:12:04,VALID,1009.09,VALID,0,VALID,94.0332,VALID,0,VALID,24.6489,VALID,86,VALID,0.167969,
2008-12-03, 00:13:04,VALID,1009.11,VALID,0,VALID,94.0179,VALID,0,VALID,24.6294,VALID,78,VALID,0.378906,
2008-12-03, 00:14:04,VALID,1009.09,VALID,0,VALID,93.9798,VALID,0,VALID,24.6294,VALID,78,VALID,0.229687,
2008-12-03, 00:15:04,VALID,1009.1,VALID,0,VALID,93.9798,VALID,0,VALID,24.6099,VALID,78,VALID,0.241016,
2008-12-03, 00:16:04,VALID,1009.12,VALID,0,VALID,93.9722,VALID,0,VALID,24.5905,VALID,78,VALID,0.254297,
2008-12-03, 00:17:04,VALID,1009.1,VALID,0,VALID,94.0027,VALID,0,VALID,24.5905,VALID,78,VALID,0.228125,
2008-12-03, 00:18:04,VALID,1009.11,VALID,0,VALID,93.9874,VALID,0,VALID,24.5515,VALID,78,VALID,0.369141,
2008-12-03, 00:19:04,VALID,1009.09,VALID,0,VALID,94.0027,VALID,0,VALID,24.532,VALID,62,VALID,0.516406,
2008-12-03, 00:20:04,VALID,1009.06,VALID,0,VALID,94.0179,VALID,0,VALID,24.5125,VALID,57,VALID,0.397656,
2008-12-03, 00:21:04,VALID,1009.05,VALID,0,VALID,94.056,VALID,0,VALID,24.4717,VALID,57,VALID,0.252734,
2008-12-03, 00:22:04,VALID,1009.03,VALID,0,VALID,94.1094,VALID,0,VALID,24.493,VALID,57,VALID,0.148438,
2008-12-03, 00:23:04,VALID,1009.04,VALID,0,VALID,94.1628,VALID,0,VALID,24.493,VALID,57,VALID,0.470313,
2008-12-03, 00:24:04,VALID,1009.01,VALID,0,VALID,94.2391,VALID,0,VALID,24.493,VALID,65,VALID,0.707422,
2008-12-03, 00:25:04,VALID,1009.01,VALID,0,VALID,94.2696,VALID,0,VALID,24.4522,VALID,59,VALID,0.724219,
2008-12-03, 00:26:04,VALID,1009.03,VALID,0,VALID,94.2696,VALID,0,VALID,24.493,VALID,71,VALID,0.934766,
2008-12-03, 00:27:04,VALID,1009,VALID,0,VALID,94.2924,VALID,0,VALID,24.493,VALID,71,VALID,0.634375,
2008-12-03, 00:28:04,VALID,1009,VALID,0,VALID,94.3153,VALID,0,VALID,24.4522,VALID,89,VALID,0.921484,
2008-12-03, 00:29:04,VALID,1008.95,VALID,0,VALID,94.3382,VALID,0,VALID,24.454,VALID,83,VALID,0.498828,
2008-12-03, 00:30:04,VALID,1008.98,VALID,0,VALID,94.3306,VALID,0,VALID,24.454,VALID,92,VALID,1.14844,
2008-12-03, 00:31:04,VALID,1008.92,VALID,0,VALID,94.3153,VALID,0,VALID,24.4327,VALID,98,VALID,1.10156,
2008-12-03, 00:32:04,VALID,1008.91,VALID,0,VALID,94.3153,VALID,0,VALID,24.415,VALID,87,VALID,1.1918,
2008-12-03, 00:33:04,VALID,1008.9,VALID,0,VALID,94.3306,VALID,0,VALID,24.4132,VALID,98,VALID,0.976172,
2008-12-03, 00:34:04,VALID,1008.87,VALID,0,VALID,94.3382,VALID,0,VALID,24.415,VALID,56,VALID,1.12461,
2008-12-03, 00:35:04,VALID,1008.87,VALID,0,VALID,94.3382,VALID,0,VALID,24.3761,VALID,78,VALID,1.30195,
2008-12-03, 00:36:04,VALID,1008.86,VALID,0,VALID,94.3534,VALID,0,VALID,24.3352,VALID,85,VALID,1.46797,
2008-12-03, 00:37:04,VALID,1008.83,VALID,0,VALID,94.3534,VALID,0,VALID,24.3566,VALID,88,VALID,1.31484,
2008-12-03, 00:38:04,VALID,1008.83,VALID,0,VALID,94.3611,VALID,0.105969,VALID,24.3352,VALID,91,VALID,1.17148,
2008-12-03, 00:39:04,VALID,1008.82,VALID,0,VALID,94.3458,VALID,0,VALID,24.2963,VALID,82,VALID,1.27422,
2008-12-03, 00:40:04,VALID,1008.8,VALID,0,VALID,94.3611,VALID,0,VALID,24.3371,VALID,61,VALID,0.896094,
2008-12-03, 00:41:04,VALID,1008.81,VALID,0,VALID,94.3458,VALID,0,VALID,24.3176,VALID,87,VALID,1.02773,
2008-12-03, 00:42:04,VALID,1008.83,VALID,0,VALID,94.3458,VALID,0,VALID,24.2981,VALID,98,VALID,0.802344,
2008-12-03, 00:43:04,VALID,1008.82,VALID,0,VALID,94.3458,VALID,0,VALID,24.2786,VALID,84,VALID,0.498828,
2008-12-03, 00:44:04,VALID,1008.81,VALID,0,VALID,94.3458,VALID,0,VALID,24.2786,VALID,74,VALID,1.21055,
2008-12-03, 00:45:04,VALID,1008.82,VALID,0,VALID,94.3534,VALID,0,VALID,24.2573,VALID,72,VALID,0.872266,
2008-12-03, 00:46:04,VALID,1008.79,VALID,0,VALID,94.3687,VALID,0,VALID,24.2396,VALID,72,VALID,0.736328,
2008-12-03, 00:47:04,VALID,1008.78,VALID,0,VALID,94.3839,VALID,0,VALID,24.2396,VALID,79,VALID,0.929297,
2008-12-03, 00:48:04,VALID,1008.76,VALID,0,VALID,94.4068,VALID,0,VALID,24.2202,VALID,93,VALID,0.513672,
2008-12-03, 00:49:04,VALID,1008.75,VALID,0,VALID,94.4373,VALID,0,VALID,24.2202,VALID,90,VALID,0.772266,
2008-12-03, 00:50:04,VALID,1008.76,VALID,0,VALID,94.4373,VALID,0,VALID,24.2007,VALID,85,VALID,1.11328,
2008-12-03, 00:51:04,VALID,1008.73,VALID,0,VALID,94.4526,VALID,0,VALID,24.2007,VALID,93,VALID,0.482812,
2008-12-03, 00:52:04,VALID,1008.73,VALID,0,VALID,94.4907,VALID,0,VALID,24.1812,VALID,55,VALID,0.402734,
2008-12-03, 00:53:04,VALID,1008.73,VALID,0,VALID,94.5136,VALID,0,VALID,24.1812,VALID,86,VALID,0.398438,
2008-12-03, 00:54:04,VALID,1008.73,VALID,0,VALID,94.5365,VALID,0,VALID,24.2007,VALID,68,VALID,0.675,
2008-12-03, 00:55:04,VALID,1008.68,VALID,0,VALID,94.5365,VALID,0,VALID,24.1812,VALID,84,VALID,0.754297,
2008-12-03, 00:56:04,VALID,1008.69,VALID,0,VALID,94.5746,VALID,0,VALID,24.1812,VALID,85,VALID,0.477344,
2008-12-03, 00:57:04,VALID,1008.67,VALID,0,VALID,94.5975,VALID,0,VALID,24.1812,VALID,79,VALID,0.559766,
2008-12-03, 00:58:04,VALID,1008.67,VALID,0,VALID,94.6203,VALID,0,VALID,24.1812,VALID,73,VALID,0.776172,
2008-12-03, 00:59:04,VALID,1008.64,VALID,0,VALID,94.6432,VALID,0,VALID,24.1617,VALID,75,VALID,0.719531,
2008-12-03, 01:00:04,VALID,1008.64,VALID,0,VALID,94.6508,VALID,0,VALID,24.1617,VALID,77,VALID,1.0125,
2008-12-03, 01:01:04,VALID,1008.6,VALID,0,VALID,94.6737,VALID,0,VALID,24.1422,VALID,108,VALID,0.981641,
2008-12-03, 01:02:04,VALID,1008.59,VALID,0,VALID,94.689,VALID,0,VALID,24.1227,VALID,99,VALID,0.769922,
2008-12-03, 01:03:04,VALID,1008.55,VALID,0,VALID,94.7195,VALID,0,VALID,24.1227,VALID,83,VALID,1.14688,
2008-12-03, 01:04:04,VALID,1008.56,VALID,0,VALID,94.7652,VALID,0,VALID,24.1032,VALID,74,VALID,1.25859,
2008-12-03, 01:05:04,VALID,1008.54,VALID,0,VALID,94.811,VALID,0,VALID,24.1032,VALID,95,VALID,1.08125,
2008-12-03, 01:06:04,VALID,1008.55,VALID,0,VALID,94.8262,VALID,0,VALID,24.0837,VALID,100,VALID,0.741406,
2008-12-03, 01:07:04,VALID,1008.52,VALID,0,VALID,94.8568,VALID,0,VALID,24.0643,VALID,99,VALID,0.6875,
2008-12-03, 01:08:04,VALID,1008.52,VALID,0,VALID,94.8949,VALID,0,VALID,24.0837,VALID,94,VALID,0.917969,
2008-12-03, 01:09:04,VALID,1008.46,VALID,0,VALID,94.9178,VALID,0,VALID,24.0643,VALID,103,VALID,0.939062,
2008-12-03, 01:10:04,VALID,1008.48,VALID,0,VALID,94.9559,VALID,0,VALID,24.0448,VALID,94,VALID,1.03437,
2008-12-03, 01:11:04,VALID,1008.44,VALID,0,VALID,95.0016,VALID,0,VALID,24.0235,VALID,96,VALID,1.09375,
2008-12-03, 01:12:04,VALID,1008.43,VALID,0,VALID,95.0093,VALID,0,VALID,24.0058,VALID,76,VALID,1.13555,
2008-12-03, 01:13:04,VALID,1008.43,VALID,0,VALID,95.0245,VALID,0,VALID,23.9845,VALID,97,VALID,1.39844,
2008-12-03, 01:14:04,VALID,1008.39,VALID,0,VALID,95.0626,VALID,0,VALID,24.0058,VALID,76,VALID,0.707031,
2008-12-03, 01:15:04,VALID,1008.37,VALID,0,VALID,95.0779,VALID,0,VALID,23.9863,VALID,79,VALID,0.821875,
2008-12-03, 01:16:04,VALID,1008.35,VALID,0,VALID,95.1236,VALID,0,VALID,23.926,VALID,101,VALID,1.10703,
2008-12-03, 01:17:04,VALID,1008.31,VALID,0,VALID,95.1236,VALID,0,VALID,23.926,VALID,99,VALID,1.10703,
2008-12-03, 01:18:04,VALID,1008.28,VALID,0,VALID,95.1542,VALID,0,VALID,23.9473,VALID,82,VALID,1.08008,
2008-12-03, 01:19:04,VALID,1008.26,VALID,0,VALID,95.1847,VALID,0,VALID,23.9473,VALID,77,VALID,0.630859,
2008-12-03, 01:20:04,VALID,1008.24,VALID,0,VALID,95.2075,VALID,0,VALID,23.9278,VALID,95,VALID,1.08242,
2008-12-03, 01:21:04,VALID,1008.22,VALID,0,VALID,95.2228,VALID,0,VALID,23.9084,VALID,79,VALID,1.02617,
2008-12-03, 01:22:04,VALID,1008.2,VALID,0,VALID,95.2685,VALID,0,VALID,23.8889,VALID,83,VALID,0.927734,
2008-12-03, 01:23:04,VALID,1008.15,VALID,0,VALID,95.2762,VALID,0,VALID,23.8889,VALID,94,VALID,1.08672,
2008-12-03, 01:24:04,VALID,1008.15,VALID,0,VALID,95.2762,VALID,0,VALID,23.8694,VALID,55,VALID,0.783984,
2008-12-03, 01:25:04,VALID,1008.13,VALID,0,VALID,95.2914,VALID,0,VALID,23.8694,VALID,68,VALID,0.810938,
2008-12-03, 01:26:04,VALID,1008.13,VALID,0,VALID,95.3219,VALID,0,VALID,23.8694,VALID,75,VALID,0.446094,
2008-12-03, 01:27:04,VALID,1008.06,VALID,0,VALID,95.3295,VALID,0,VALID,23.8694,VALID,95,VALID,0.798828,
2008-12-03, 01:28:04,VALID,1008.07,VALID,0,VALID,95.3753,VALID,0.105969,VALID,23.8481,VALID,90,VALID,1.14805,
2008-12-03, 01:29:04,VALID,1008.03,VALID,0,VALID,95.3753,VALID,0.105969,VALID,23.8481,VALID,92,VALID,0.720312,
2008-12-03, 01:30:04,VALID,1008.02,VALID,0,VALID,95.3982,VALID,0,VALID,23.8676,VALID,89,VALID,0.473047,
2008-12-03, 01:31:04,VALID,1008.02,VALID,0,VALID,95.3982,VALID,0.105969,VALID,23.8073,VALID,76,VALID,1.02188,
2008-12-03, 01:32:04,VALID,1007.98,VALID,0,VALID,95.4134,VALID,0.105969,VALID,23.8091,VALID,83,VALID,1.04414,
2008-12-03, 01:33:04,VALID,1008,VALID,0,VALID,95.4363,VALID,0,VALID,23.8286,VALID,108,VALID,0.854297,
2008-12-03, 01:34:04,VALID,1007.97,VALID,0,VALID,95.4287,VALID,0,VALID,23.8091,VALID,91,VALID,0.909375,
2008-12-03, 01:35:04,VALID,1007.96,VALID,0,VALID,95.4287,VALID,0,VALID,23.8073,VALID,104,VALID,0.648047,
2008-12-03, 01:36:04,VALID,1007.92,VALID,0,VALID,95.4668,VALID,0.105969,VALID,23.8091,VALID,111,VALID,0.802734,
2008-12-03, 01:37:04,VALID,1007.95,VALID,0,VALID,95.4821,VALID,0.105969,VALID,23.8091,VALID,98,VALID,0.90625,
2008-12-03, 01:38:04,VALID,1007.91,VALID,0,VALID,95.4821,VALID,0.105969,VALID,23.7896,VALID,93,VALID,0.362891,
2008-12-03, 01:39:04,VALID,1007.91,VALID,0,VALID,95.5049,VALID,0,VALID,23.8109,VALID,93,VALID,0.046875,
2008-12-03, 01:40:04,VALID,1007.9,VALID,0,VALID,95.4973,VALID,0,VALID,23.8304,VALID,94,VALID,0.236328,
2008-12-03, 01:41:04,VALID,1007.89,VALID,0,VALID,95.5202,VALID,0,VALID,23.8109,VALID,108,VALID,0.766797,
2008-12-03, 01:42:04,VALID,1007.86,VALID,0,VALID,95.5202,VALID,0,VALID,23.8304,VALID,107,VALID,0.469922,
2008-12-03, 01:43:04,VALID,1007.85,VALID,0,VALID,95.5278,VALID,0,VALID,23.8304,VALID,110,VALID,0.327344,
2008-12-03, 01:44:04,VALID,1007.85,VALID,0,VALID,95.5278,VALID,0,VALID,23.8304,VALID,110,VALID,0.151562,
2008-12-03, 01:45:04,VALID,1007.86,VALID,0,VALID,95.5202,VALID,0,VALID,23.8109,VALID,110,VALID,0,
2008-12-03, 01:46:04,VALID,1007.86,VALID,0,VALID,95.5583,VALID,0,VALID,23.8499,VALID,110,VALID,0.08125,
2008-12-03, 01:47:04,VALID,1007.85,VALID,0,VALID,95.5431,VALID,0,VALID,23.8517,VALID,109,VALID,0.449219,
2008-12-03, 01:48:04,VALID,1007.87,VALID,0,VALID,95.5583,VALID,0,VALID,23.8109,VALID,109,VALID,0.357812,
2008-12-03, 01:49:04,VALID,1007.85,VALID,0,VALID,95.5583,VALID,0,VALID,23.7896,VALID,109,VALID,0.237891,
2008-12-03, 01:50:04,VALID,1007.84,VALID,0,VALID,95.5659,VALID,0,VALID,23.8109,VALID,93,VALID,0.280859,
2008-12-03, 01:51:04,VALID,1007.81,VALID,0,VALID,95.5812,VALID,0,VALID,23.7914,VALID,79,VALID,0.457031,
2008-12-03, 01:52:04,VALID,1007.8,VALID,0,VALID,95.5888,VALID,0,VALID,23.7701,VALID,80,VALID,0.457422,
2008-12-03, 01:53:04,VALID,1007.79,VALID,0,VALID,95.5964,VALID,0,VALID,23.7914,VALID,81,VALID,0.623438,
2008-12-03, 01:54:04,VALID,1007.78,VALID,0,VALID,95.6041,VALID,0,VALID,23.7914,VALID,72,VALID,0.623047,
2008-12-03, 01:55:04,VALID,1007.78,VALID,0,VALID,95.6041,VALID,0,VALID,23.7914,VALID,94,VALID,0.472266,
2008-12-03, 01:56:04,VALID,1007.78,VALID,0,VALID,95.6269,VALID,0,VALID,23.772,VALID,94,VALID,0.652344,
2008-12-03, 01:57:04,VALID,1007.75,VALID,0,VALID,95.6193,VALID,0,VALID,23.7914,VALID,94,VALID,0.54375,
2008-12-03, 01:58:04,VALID,1007.76,VALID,0,VALID,95.6346,VALID,0,VALID,23.7914,VALID,115,VALID,0.513281,
2008-12-03, 01:59:04,VALID,1007.77,VALID,0,VALID,95.6269,VALID,0,VALID,23.7914,VALID,116,VALID,0.879297,
2008-12-03, 02:00:04,VALID,1007.78,VALID,0,VALID,95.6498,VALID,0,VALID,23.8109,VALID,126,VALID,0.656641,
2008-12-03, 02:01:04,VALID,1007.77,VALID,0,VALID,95.6346,VALID,0,VALID,23.7914,VALID,126,VALID,0.652734,
2008-12-03, 02:02:04,VALID,1007.81,VALID,0,VALID,95.6574,VALID,0,VALID,23.7914,VALID,149,VALID,0.653516,
2008-12-03, 02:03:04,VALID,1007.79,VALID,0,VALID,95.6651,VALID,0,VALID,23.7914,VALID,134,VALID,1.13867,
2008-12-03, 02:04:04,VALID,1007.79,VALID,0,VALID,95.6574,VALID,0,VALID,23.7507,VALID,149,VALID,0.740234,
2008-12-03, 02:05:04,VALID,1007.8,VALID,0,VALID,95.6498,VALID,0,VALID,23.7525,VALID,143,VALID,0.535547,
2008-12-03, 02:06:04,VALID,1007.79,VALID,0,VALID,95.6727,VALID,0,VALID,23.7312,VALID,142,VALID,0.416406,
2008-12-03, 02:07:04,VALID,1007.74,VALID,0,VALID,95.6803,VALID,0,VALID,23.772,VALID,142,VALID,0,
2008-12-03, 02:08:04,VALID,1007.73,VALID,0,VALID,95.688,VALID,0,VALID,23.7525,VALID,142,VALID,0.444531,
2008-12-03, 02:09:04,VALID,1007.72,VALID,0,VALID,95.688,VALID,0,VALID,23.7525,VALID,127,VALID,0.569531,
2008-12-03, 02:10:04,VALID,1007.73,VALID,0,VALID,95.6727,VALID,0,VALID,23.7525,VALID,127,VALID,0.722656,
2008-12-03, 02:11:04,VALID,1007.72,VALID,0,VALID,95.7032,VALID,0,VALID,23.7525,VALID,124,VALID,0.297266,
2008-12-03, 02:12:04,VALID,1007.72,VALID,0,VALID,95.6956,VALID,0,VALID,23.7525,VALID,110,VALID,0.398828,
2008-12-03, 02:13:04,VALID,1007.73,VALID,0,VALID,95.7032,VALID,0,VALID,23.7525,VALID,110,VALID,0.644922,
2008-12-03, 02:14:04,VALID,1007.76,VALID,0,VALID,95.7032,VALID,0,VALID,23.7525,VALID,110,VALID,0.203906,
2008-12-03, 02:15:04,VALID,1007.76,VALID,0,VALID,95.7032,VALID,0,VALID,23.7507,VALID,110,VALID,0,
2008-12-03, 02:16:04,VALID,1007.78,VALID,0,VALID,95.7032,VALID,0,VALID,23.772,VALID,110,VALID,0.00195313,
2008-12-03, 02:17:04,VALID,1007.8,VALID,0,VALID,95.6956,VALID,0,VALID,23.7525,VALID,110,VALID,0.275391,
2008-12-03, 02:18:04,VALID,1007.8,VALID,0,VALID,95.688,VALID,0,VALID,23.772,VALID,110,VALID,0.436719,
2008-12-03, 02:19:04,VALID,1007.79,VALID,0,VALID,95.6956,VALID,0,VALID,23.772,VALID,110,VALID,0.0859375,
2008-12-03, 02:20:04,VALID,1007.82,VALID,0,VALID,95.6956,VALID,0,VALID,23.7507,VALID,110,VALID,0,
2008-12-03, 02:21:04,VALID,1007.84,VALID,0,VALID,95.7032,VALID,0,VALID,23.7701,VALID,110,VALID,0,
2008-12-03, 02:22:04,VALID,1007.8,VALID,0,VALID,95.7185,VALID,0,VALID,23.772,VALID,110,VALID,0.384766,
2008-12-03, 02:23:04,VALID,1007.82,VALID,0,VALID,95.7337,VALID,0,VALID,23.772,VALID,110,VALID,0.409766,
2008-12-03, 02:24:04,VALID,1007.83,VALID,0,VALID,95.7261,VALID,0,VALID,23.7525,VALID,110,VALID,0.317578,
2008-12-03, 02:25:04,VALID,1007.81,VALID,0,VALID,95.7261,VALID,0,VALID,23.7525,VALID,110,VALID,0.194141,
2008-12-03, 02:26:04,VALID,1007.84,VALID,0,VALID,95.7337,VALID,0,VALID,23.733,VALID,110,VALID,0.194141,
2008-12-03, 02:27:04,VALID,1007.78,VALID,0,VALID,95.7337,VALID,0,VALID,23.733,VALID,110,VALID,0.251172,
2008-12-03, 02:28:04,VALID,1007.82,VALID,0,VALID,95.7261,VALID,0,VALID,23.7312,VALID,110,VALID,0.00351562,
2008-12-03, 02:29:04,VALID,1007.81,VALID,0,VALID,95.7261,VALID,0,VALID,23.733,VALID,110,VALID,0.00625,
2008-12-03, 02:30:04,VALID,1007.81,VALID,0,VALID,95.7413,VALID,0,VALID,23.733,VALID,110,VALID,0.154297,
2008-12-03, 02:31:04,VALID,1007.78,VALID,0,VALID,95.7337,VALID,0,VALID,23.733,VALID,110,VALID,0.31875,
2008-12-03, 02:32:04,VALID,1007.77,VALID,0,VALID,95.7337,VALID,0,VALID,23.733,VALID,110,VALID,0.346094,
2008-12-03, 02:33:04,VALID,1007.78,VALID,0,VALID,95.7261,VALID,0,VALID,23.7525,VALID,110,VALID,0.403906,
2008-12-03, 02:34:04,VALID,1007.78,VALID,0,VALID,95.7185,VALID,0,VALID,23.7525,VALID,110,VALID,0.173828,
2008-12-03, 02:35:04,VALID,1007.8,VALID,0,VALID,95.7413,VALID,0,VALID,23.7525,VALID,94,VALID,0.274609,
2008-12-03, 02:36:04,VALID,1007.8,VALID,0,VALID,95.7413,VALID,0,VALID,23.7525,VALID,83,VALID,0.0675781,
2008-12-03, 02:37:04,VALID,1007.79,VALID,0,VALID,95.749,VALID,0,VALID,23.7525,VALID,83,VALID,0.0621094,
2008-12-03, 02:38:04,VALID,1007.8,VALID,0,VALID,95.7261,VALID,0,VALID,23.733,VALID,83,VALID,0.278125,
2008-12-03, 02:39:04,VALID,1007.76,VALID,0,VALID,95.7413,VALID,0,VALID,23.733,VALID,83,VALID,0,
2008-12-03, 02:40:04,VALID,1007.75,VALID,0,VALID,95.7337,VALID,0,VALID,23.694,VALID,83,VALID,0,
2008-12-03, 02:41:04,VALID,1007.75,VALID,0,VALID,95.7261,VALID,0,VALID,23.7135,VALID,83,VALID,0,
2008-12-03, 02:42:04,VALID,1007.72,VALID,0,VALID,95.749,VALID,0,VALID,23.6745,VALID,83,VALID,0,
2008-12-03, 02:43:04,VALID,1007.7,VALID,0,VALID,95.749,VALID,0,VALID,23.655,VALID,72,VALID,0,
2008-12-03, 02:44:04,VALID,1007.7,VALID,0,VALID,95.7413,VALID,0,VALID,23.6356,VALID,59,VALID,0,
2008-12-03, 02:45:04,VALID,1007.65,VALID,0,VALID,95.7413,VALID,0,VALID,23.6356,VALID,59,VALID,0,
2008-12-03, 02:46:04,VALID,1007.7,VALID,0,VALID,95.7413,VALID,0,VALID,23.6161,VALID,59,VALID,0,
2008-12-03, 02:47:04,VALID,1007.67,VALID,0,VALID,95.7413,VALID,0,VALID,23.5948,VALID,59,VALID,0,
2008-12-03, 02:48:04,VALID,1007.69,VALID,0,VALID,95.749,VALID,0,VALID,23.6161,VALID,59,VALID,0,
2008-12-03, 02:49:04,VALID,1007.7,VALID,0,VALID,95.749,VALID,0,VALID,23.6161,VALID,64,VALID,0.114844,
2008-12-03, 02:50:04,VALID,1007.68,VALID,0,VALID,95.7642,VALID,0,VALID,23.5966,VALID,71,VALID,0.165234,
2008-12-03, 02:51:04,VALID,1007.7,VALID,0,VALID,95.749,VALID,0,VALID,23.5966,VALID,71,VALID,0.189063,
2008-12-03, 02:52:04,VALID,1007.68,VALID,0,VALID,95.7413,VALID,0,VALID,23.5948,VALID,102,VALID,0.525391,
2008-12-03, 02:53:04,VALID,1007.69,VALID,0,VALID,95.7566,VALID,0,VALID,23.6356,VALID,103,VALID,0.880859,
2008-12-03, 02:54:04,VALID,1007.71,VALID,0,VALID,95.7566,VALID,0,VALID,23.6356,VALID,103,VALID,0.580859,
2008-12-03, 02:55:04,VALID,1007.72,VALID,0,VALID,95.7566,VALID,0,VALID,23.6356,VALID,101,VALID,0.522656,
2008-12-03, 02:56:04,VALID,1007.72,VALID,0,VALID,95.7642,VALID,0,VALID,23.6356,VALID,105,VALID,0.485156,
2008-12-03, 02:57:04,VALID,1007.7,VALID,0,VALID,95.7718,VALID,0,VALID,23.6356,VALID,123,VALID,0.5125,
2008-12-03, 02:58:04,VALID,1007.69,VALID,0,VALID,95.749,VALID,0,VALID,23.6745,VALID,125,VALID,0.4875,
2008-12-03, 02:59:04,VALID,1007.74,VALID,0,VALID,95.7566,VALID,0,VALID,23.6958,VALID,125,VALID,0.203906,
2008-12-03, 03:00:04,VALID,1007.71,VALID,0,VALID,95.749,VALID,0,VALID,23.655,VALID,122,VALID,0.555078,
2008-12-03, 03:01:04,VALID,1007.7,VALID,0,VALID,95.7413,VALID,0,VALID,23.655,VALID,120,VALID,0.256641,
2008-12-03, 03:02:04,VALID,1007.7,VALID,0,VALID,95.749,VALID,0,VALID,23.655,VALID,120,VALID,0.207422,
2008-12-03, 03:03:04,VALID,1007.7,VALID,0,VALID,95.7642,VALID,0,VALID,23.6745,VALID,120,VALID,0.421484,
2008-12-03, 03:04:04,VALID,1007.7,VALID,0,VALID,95.7566,VALID,0,VALID,23.655,VALID,120,VALID,0,
2008-12-03, 03:05:04,VALID,1007.68,VALID,0,VALID,95.7566,VALID,0,VALID,23.655,VALID,135,VALID,0.371094,
2008-12-03, 03:06:04,VALID,1007.71,VALID,0,VALID,95.7642,VALID,0,VALID,23.6338,VALID,135,VALID,0.0953125,
2008-12-03, 03:07:04,VALID,1007.71,VALID,0,VALID,95.7566,VALID,0,VALID,23.6143,VALID,135,VALID,0.234766,
2008-12-03, 03:08:04,VALID,1007.72,VALID,0,VALID,95.7566,VALID,0,VALID,23.6143,VALID,135,VALID,0,
2008-12-03, 03:09:04,VALID,1007.72,VALID,0,VALID,95.749,VALID,0,VALID,23.6338,VALID,135,VALID,0,
2008-12-03, 03:10:04,VALID,1007.75,VALID,0,VALID,95.7566,VALID,0,VALID,23.6338,VALID,135,VALID,0,
2008-12-03, 03:11:04,VALID,1007.73,VALID,0,VALID,95.7566,VALID,0,VALID,23.655,VALID,135,VALID,0,
2008-12-03, 03:12:04,VALID,1007.76,VALID,0,VALID,95.7413,VALID,0,VALID,23.6338,VALID,135,VALID,0,
2008-12-03, 03:13:04,VALID,1007.74,VALID,0,VALID,95.7566,VALID,0,VALID,23.6338,VALID,135,VALID,0,
2008-12-03, 03:14:04,VALID,1007.7,VALID,0,VALID,95.7718,VALID,0,VALID,23.6338,VALID,135,VALID,0,
2008-12-03, 03:15:04,VALID,1007.72,VALID,0,VALID,95.749,VALID,0.105969,VALID,23.6143,VALID,135,VALID,0,
2008-12-03, 03:16:04,VALID,1007.73,VALID,0,VALID,95.7566,VALID,0,VALID,23.6338,VALID,134,VALID,0.40625,
2008-12-03, 03:17:04,VALID,1007.7,VALID,0,VALID,95.7566,VALID,0,VALID,23.6143,VALID,134,VALID,0.264844,
2008-12-03, 03:18:04,VALID,1007.72,VALID,0,VALID,95.7566,VALID,0,VALID,23.6356,VALID,134,VALID,0.141406,
2008-12-03, 03:19:04,VALID,1007.69,VALID,0,VALID,95.7566,VALID,0,VALID,23.6356,VALID,134,VALID,0.230469,
2008-12-03, 03:20:04,VALID,1007.71,VALID,0,VALID,95.749,VALID,0,VALID,23.6356,VALID,134,VALID,0.246875,
2008-12-03, 03:21:04,VALID,1007.71,VALID,0,VALID,95.7413,VALID,0,VALID,23.6356,VALID,134,VALID,0.407422,
2008-12-03, 03:22:04,VALID,1007.69,VALID,0,VALID,95.7566,VALID,0,VALID,23.6356,VALID,134,VALID,0.216797,
2008-12-03, 03:23:04,VALID,1007.71,VALID,0,VALID,95.749,VALID,0,VALID,23.6161,VALID,134,VALID,0,
2008-12-03, 03:24:04,VALID,1007.7,VALID,0,VALID,95.7566,VALID,0,VALID,23.5966,VALID,134,VALID,0,
2008-12-03, 03:25:04,VALID,1007.71,VALID,0,VALID,95.7185,VALID,0,VALID,23.5558,VALID,134,VALID,0,
2008-12-03, 03:26:04,VALID,1007.73,VALID,0,VALID,95.7413,VALID,0,VALID,23.5169,VALID,134,VALID,0,
2008-12-03, 03:27:04,VALID,1007.73,VALID,0,VALID,95.7337,VALID,0,VALID,23.5363,VALID,134,VALID,0.336719,
2008-12-03, 03:28:04,VALID,1007.75,VALID,0,VALID,95.7337,VALID,0,VALID,23.4956,VALID,134,VALID,0.468359,
2008-12-03, 03:29:04,VALID,1007.71,VALID,0,VALID,95.7413,VALID,0,VALID,23.5576,VALID,131,VALID,0.553516,
2008-12-03, 03:30:04,VALID,1007.73,VALID,0,VALID,95.7413,VALID,0,VALID,23.5363,VALID,99,VALID,0.691406,
2008-12-03, 03:31:04,VALID,1007.7,VALID,0,VALID,95.7337,VALID,0,VALID,23.5169,VALID,111,VALID,0.657031,
2008-12-03, 03:32:04,VALID,1007.69,VALID,0,VALID,95.749,VALID,0,VALID,23.5169,VALID,92,VALID,0.461328,
2008-12-03, 03:33:04,VALID,1007.68,VALID,0,VALID,95.7261,VALID,0,VALID,23.5381,VALID,90,VALID,0.473047,
2008-12-03, 03:34:04,VALID,1007.69,VALID,0,VALID,95.7108,VALID,0,VALID,23.5169,VALID,84,VALID,0.915625,
2008-12-03, 03:35:04,VALID,1007.67,VALID,0,VALID,95.7108,VALID,0,VALID,23.5169,VALID,89,VALID,0.770703,
2008-12-03, 03:36:04,VALID,1007.67,VALID,0,VALID,95.7261,VALID,0,VALID,23.5186,VALID,79,VALID,0.746875,
2008-12-03, 03:37:04,VALID,1007.64,VALID,0,VALID,95.7032,VALID,0,VALID,23.4992,VALID,84,VALID,0.788281,
2008-12-03, 03:38:04,VALID,1007.62,VALID,0,VALID,95.7108,VALID,0,VALID,23.4779,VALID,87,VALID,0.451953,
2008-12-03, 03:39:04,VALID,1007.61,VALID,0,VALID,95.7108,VALID,0,VALID,23.4992,VALID,87,VALID,0.772266,
2008-12-03, 03:40:04,VALID,1007.62,VALID,0,VALID,95.7185,VALID,0,VALID,23.4992,VALID,97,VALID,0.665625,
2008-12-03, 03:41:04,VALID,1007.62,VALID,0,VALID,95.7108,VALID,0,VALID,23.4779,VALID,97,VALID,0.512891,
2008-12-03, 03:42:04,VALID,1007.59,VALID,0,VALID,95.7032,VALID,0,VALID,23.4779,VALID,98,VALID,0.733203,
2008-12-03, 03:43:04,VALID,1007.58,VALID,0,VALID,95.6956,VALID,0,VALID,23.4779,VALID,104,VALID,0.469531,
2008-12-03, 03:44:04,VALID,1007.55,VALID,0,VALID,95.6803,VALID,0,VALID,23.4389,VALID,97,VALID,0.359375,
2008-12-03, 03:45:04,VALID,1007.56,VALID,0,VALID,95.6727,VALID,0,VALID,23.4389,VALID,97,VALID,0.620313,
2008-12-03, 03:46:04,VALID,1007.54,VALID,0,VALID,95.688,VALID,0,VALID,23.4389,VALID,104,VALID,0.552734,
2008-12-03, 03:47:04,VALID,1007.55,VALID,0,VALID,95.6651,VALID,0,VALID,23.4602,VALID,103,VALID,0.857813,